軌道要素
Epoch 2020 Nov. 7.0 TT = JDT 2459160.5
T 2020 Oct. 26.18710 TT Rudenko
q 1.7032671 (2000.0) P Q
n 0.13342795 Peri. 186.43627 +0.99994358 +0.00501424
a 3.7929011 Node 173.25515 -0.00171126 +0.94610231
e 0.5509329 Incl. 4.57322 -0.01048370 +0.32382910
P 7.39
From 371 observations 1986 Nov. 30-2020 Nov. 5, mean residual 2".0.
|